| time (UTC) | temp F | wind direction | speed MPH | gust MPH | rain 1hr in | rain 24hr in | rain mn in | humidity % | barometer mb |
| 20260904075519 | 74 | 0 | 0.0 | 0.0 | 0.00 | 0.04 | 0.00 | 91 | 1009.0 |
| 20260904075510 | 74 | 184 | 0.0 | 0.0 | 0.00 | 0.04 | 0.00 | 90 | 1008.2 |
| 20260904075017 | 74 | 0 | 0.0 | 0.0 | 0.00 | 0.04 | 0.00 | 90 | 1008.9 |
| 20260904075011 | 74 | 184 | 0.0 | 0.0 | 0.00 | 0.04 | 0.00 | 90 | 1008.2 |
| 20260904074601 | 74 | 0 | 0.0 | 0.0 | 0.00 | 0.04 | 0.00 | 91 | 1009.0 |
| 20260904074511 | 74 | 184 | 0.0 | 0.0 | 0.00 | 0.04 | 0.00 | 90 | 1008.2 |
| 20260904074023 | 74 | 0 | 0.0 | 0.0 | 0.00 | 0.04 | 0.00 | 91 | 1008.9 |
| 20260904074011 | 74 | 184 | 0.0 | 0.0 | 0.00 | 0.04 | 0.00 | 90 | 1008.2 |
| 20260904073521 | 74 | 0 | 0.0 | 0.0 | 0.00 | 0.04 | 0.00 | 90 | 1009.0 |
| 20260904073510 | 74 | 184 | 0.0 | 0.0 | 0.00 | 0.04 | 0.00 | 90 | 1008.2 |
| 20260904073043 | 74 | 0 | 0.0 | 0.0 | 0.00 | 0.04 | 0.00 | 90 | 1009.0 |
| 20260904072522 | 74 | 0 | 0.0 | 0.0 | 0.00 | 0.04 | 0.00 | 90 | 1009.0 |
| 20260904072019 | 74 | 0 | 0.0 | 0.0 | 0.00 | 0.04 | 0.00 | 90 | 1009.0 |
| 20260904072010 | 74 | 184 | 0.0 | 0.0 | 0.00 | 0.04 | 0.00 | 90 | 1008.2 |
| 20260904071539 | 74 | 0 | 0.0 | 0.0 | 0.00 | 0.04 | 0.00 | 90 | 1008.9 |
| 20260904071510 | 74 | 184 | 0.0 | 0.0 | 0.00 | 0.04 | 0.00 | 89 | 1008.2 |
| 20260904071018 | 74 | 0 | 0.0 | 0.0 | 0.00 | 0.04 | 0.00 | 90 | 1009.0 |
| 20260904070520 | 74 | 0 | 0.0 | 0.0 | 0.00 | 0.04 | 0.00 | 89 | 1009.1 |
| 20260904070042 | 74 | 0 | 0.0 | 0.0 | 0.00 | 0.04 | 0.00 | 89 | 1009.1 |
| 20260904070010 | 75 | 184 | 0.0 | 0.0 | 0.00 | 0.04 | 0.00 | 89 | 1008.4 |
| 20260904065524 | 74 | 0 | 0.0 | 0.0 | 0.00 | 0.04 | 0.00 | 89 | 1009.2 |
| 20260904065510 | 75 | 184 | 0.0 | 0.0 | 0.00 | 0.04 | 0.00 | 89 | 1008.4 |
| 20260904065024 | 75 | 0 | 0.0 | 0.0 | 0.00 | 0.04 | 0.00 | 89 | 1009.2 |
| 20260904065010 | 75 | 184 | 0.0 | 0.0 | 0.00 | 0.04 | 0.00 | 89 | 1008.4 |
| 20260904064546 | 75 | 0 | 0.0 | 0.0 | 0.00 | 0.04 | 0.00 | 89 | 1009.2 |
| 20260904064510 | 75 | 184 | 0.0 | 0.0 | 0.00 | 0.04 | 0.00 | 88 | 1008.5 |
| 20260904064018 | 75 | 0 | 0.0 | 0.0 | 0.00 | 0.04 | 0.00 | 89 | 1009.2 |
| 20260904064010 | 75 | 184 | 0.0 | 0.0 | 0.00 | 0.04 | 0.00 | 88 | 1008.5 |
| 20260904063521 | 75 | 0 | 0.0 | 0.0 | 0.00 | 0.04 | 0.00 | 89 | 1009.2 |
| 20260904063510 | 76 | 184 | 0.0 | 0.0 | 0.00 | 0.04 | 0.00 | 89 | 1008.5 |
| 20260904063045 | 75 | 0 | 0.0 | 0.0 | 0.00 | 0.04 | 0.00 | 89 | 1009.3 |
| 20260904062526 | 75 | 0 | 0.0 | 0.0 | 0.00 | 0.04 | 0.00 | 89 | 1009.2 |
| 20260904062021 | 75 | 0 | 0.0 | 0.0 | 0.00 | 0.04 | 0.00 | 89 | 1009.3 |
| 20260904062010 | 76 | 184 | 0.0 | 0.0 | 0.00 | 0.04 | 0.00 | 88 | 1008.5 |
| 20260904061541 | 75 | 0 | 0.0 | 0.0 | 0.00 | 0.04 | 0.00 | 89 | 1009.3 |
| 20260904061510 | 76 | 184 | 0.0 | 0.0 | 0.00 | 0.04 | 0.00 | 88 | 1008.5 |
| 20260904061020 | 76 | 0 | 0.0 | 0.0 | 0.00 | 0.04 | 0.00 | 88 | 1009.2 |
| 20260904060519 | 76 | 0 | 0.0 | 0.0 | 0.00 | 0.04 | 0.00 | 88 | 1009.3 |
| 20260904060510 | 76 | 184 | 0.0 | 0.0 | 0.00 | 0.04 | 0.00 | 88 | 1008.6 |
| 20260904060042 | 76 | 0 | 0.0 | 0.0 | 0.00 | 0.04 | 0.00 | 88 | 1009.3 |
| 20260904060010 | 76 | 184 | 0.0 | 0.0 | 0.00 | 0.04 | 0.00 | 88 | 1008.5 |
| 20260904055519 | 76 | 0 | 0.0 | 0.0 | 0.00 | 0.04 | 0.00 | 88 | 1009.3 |
| 20260904055510 | 76 | 184 | 0.0 | 0.0 | 0.00 | 0.04 | 0.00 | 88 | 1008.4 |
| 20260904055020 | 76 | 0 | 0.0 | 0.0 | 0.00 | 0.04 | 0.00 | 88 | 1009.4 |
| 20260904055010 | 76 | 184 | 0.0 | 0.0 | 0.00 | 0.04 | 0.00 | 88 | 1008.5 |
| 20260904054541 | 76 | 0 | 0.0 | 0.0 | 0.00 | 0.04 | 0.00 | 88 | 1009.4 |
| 20260904054510 | 76 | 184 | 0.0 | 0.0 | 0.00 | 0.04 | 0.00 | 88 | 1008.6 |
| 20260904054019 | 76 | 0 | 0.0 | 0.0 | 0.00 | 0.04 | 0.00 | 88 | 1009.4 |
| 20260904054010 | 76 | 184 | 0.0 | 0.0 | 0.00 | 0.04 | 0.00 | 87 | 1008.6 |
| 20260904053519 | 76 | 0 | 0.0 | 0.0 | 0.00 | 0.04 | 0.00 | 88 | 1009.4 |
| 20260904053510 | 77 | 184 | 0.0 | 0.0 | 0.00 | 0.04 | 0.00 | 87 | 1008.6 |
| 20260904053041 | 76 | 0 | 0.0 | 0.0 | 0.00 | 0.04 | 0.00 | 88 | 1009.4 |
| 20260904053011 | 77 | 184 | 0.0 | 0.0 | 0.00 | 0.04 | 0.00 | 87 | 1008.7 |
| 20260904052521 | 76 | 0 | 0.0 | 0.0 | 0.00 | 0.04 | 0.00 | 87 | 1009.3 |
| 20260904052510 | 77 | 184 | 0.0 | 0.0 | 0.00 | 0.04 | 0.00 | 87 | 1008.6 |
| 20260904052024 | 76 | 0 | 0.0 | 0.0 | 0.00 | 0.04 | 0.00 | 87 | 1009.3 |
| 20260904052010 | 77 | 184 | 0.0 | 0.0 | 0.00 | 0.04 | 0.00 | 87 | 1008.5 |
| 20260904051539 | 77 | 0 | 0.0 | 0.0 | 0.00 | 0.04 | 0.00 | 87 | 1009.3 |
| 20260904051510 | 77 | 184 | 0.0 | 0.0 | 0.00 | 0.04 | 0.00 | 87 | 1008.5 |
| 20260904051025 | 77 | 0 | 0.0 | 0.0 | 0.00 | 0.04 | 0.00 | 87 | 1009.3 |
| 20260904051010 | 77 | 184 | 0.0 | 0.0 | 0.00 | 0.04 | 0.00 | 87 | 1008.5 |
| 20260904050520 | 77 | 0 | 0.0 | 0.0 | 0.00 | 0.04 | 0.00 | 87 | 1009.1 |
| 20260904050042 | 77 | 0 | 0.0 | 0.0 | 0.00 | 0.04 | 0.00 | 87 | 1009.1 |
| 20260904050010 | 77 | 184 | 0.0 | 0.0 | 0.00 | 0.04 | 0.00 | 87 | 1008.3 |
| 20260904045524 | 77 | 0 | 0.0 | 3.0 | 0.00 | 0.04 | 0.04 | 87 | 1009.0 |
| 20260904045510 | 77 | 184 | 0.0 | 0.0 | 0.00 | 0.04 | 0.04 | 86 | 1008.2 |
| 20260904045026 | 77 | 0 | 0.0 | 4.0 | 0.00 | 0.04 | 0.04 | 87 | 1009.0 |
| 20260904045010 | 77 | 184 | 0.0 | 0.0 | 0.00 | 0.04 | 0.04 | 86 | 1008.2 |
| 20260904044541 | 77 | 0 | 1.0 | 8.0 | 0.00 | 0.04 | 0.04 | 87 | 1008.9 |
| 20260904044018 | 77 | 0 | 2.0 | 8.0 | 0.00 | 0.04 | 0.04 | 87 | 1008.8 |
| 20260904044010 | 77 | 172 | 0.0 | 1.0 | 0.00 | 0.04 | 0.04 | 86 | 1008.0 |
| 20260904043524 | 77 | 190 | 2.0 | 8.0 | 0.00 | 0.04 | 0.04 | 87 | 1008.7 |
| 20260904043510 | 77 | 143 | 4.0 | 1.0 | 0.00 | 0.04 | 0.04 | 86 | 1008.0 |
| 20260904043038 | 77 | 187 | 2.0 | 8.0 | 0.00 | 0.04 | 0.04 | 87 | 1008.8 |
| 20260904043010 | 77 | 187 | 2.0 | 1.0 | 0.00 | 0.04 | 0.04 | 86 | 1008.0 |
| 20260904042521 | 77 | 167 | 3.0 | 8.0 | 0.00 | 0.04 | 0.04 | 87 | 1008.8 |
| 20260904042021 | 77 | 159 | 2.0 | 5.0 | 0.00 | 0.04 | 0.04 | 86 | 1008.7 |
| 20260904042010 | 77 | 159 | 4.0 | 0.0 | 0.00 | 0.04 | 0.04 | 86 | 1008.0 |
| 20260904041543 | 77 | 186 | 1.0 | 6.0 | 0.00 | 0.04 | 0.04 | 86 | 1008.7 |
| 20260904041510 | 77 | 186 | 2.0 | 0.0 | 0.00 | 0.04 | 0.04 | 86 | 1008.1 |
| 20260904041023 | 77 | 186 | 0.0 | 7.0 | 0.00 | 0.04 | 0.04 | 86 | 1008.8 |
| 20260904041010 | 77 | 186 | 2.0 | 1.0 | 0.00 | 0.04 | 0.04 | 85 | 1008.1 |
| 20260904040521 | 77 | 168 | 1.0 | 7.0 | 0.00 | 0.04 | 0.04 | 86 | 1008.9 |
| 20260904040511 | 77 | 168 | 3.0 | 1.0 | 0.00 | 0.04 | 0.04 | 85 | 1008.1 |
| 20260904040055 | 77 | 165 | 3.0 | 7.0 | 0.00 | 0.04 | 0.04 | 86 | 1008.9 |
| 20260904040010 | 77 | 165 | 3.0 | 1.0 | 0.00 | 0.04 | 0.04 | 85 | 1008.2 |
| 20260904035524 | 77 | 199 | 2.0 | 6.0 | 0.00 | 0.04 | 0.04 | 86 | 1009.0 |
| 20260904035510 | 77 | 199 | 3.0 | 1.0 | 0.00 | 0.04 | 0.04 | 85 | 1008.2 |
| 20260904035017 | 77 | 0 | 1.0 | 7.0 | 0.00 | 0.04 | 0.04 | 85 | 1009.0 |
| 20260904035011 | 77 | 153 | 0.0 | 1.0 | 0.00 | 0.04 | 0.04 | 85 | 1008.3 |
| 20260904034544 | 77 | 186 | 3.0 | 7.0 | 0.00 | 0.04 | 0.04 | 85 | 1008.9 |
| 20260904034021 | 77 | 185 | 2.0 | 5.0 | 0.00 | 0.04 | 0.04 | 85 | 1009.0 |
| 20260904034010 | 77 | 185 | 3.0 | 0.0 | 0.00 | 0.04 | 0.04 | 85 | 1008.3 |
| 20260904033519 | 77 | 219 | 1.0 | 4.0 | 0.00 | 0.04 | 0.04 | 85 | 1009.1 |
| 20260904033510 | 77 | 219 | 2.0 | 0.0 | 0.00 | 0.04 | 0.04 | 84 | 1008.3 |
| 20260904033041 | 77 | 218 | 2.0 | 5.0 | 0.00 | 0.04 | 0.04 | 85 | 1009.1 |
| 20260904032519 | 77 | 218 | 2.0 | 6.0 | 0.00 | 0.04 | 0.04 | 84 | 1009.0 |
| 20260904032510 | 78 | 218 | 2.0 | 0.0 | 0.00 | 0.04 | 0.04 | 84 | 1008.2 |
| 20260904032019 | 77 | 209 | 2.0 | 6.0 | 0.00 | 0.04 | 0.04 | 84 | 1009.1 |
| 20260904032010 | 78 | 209 | 3.0 | 1.0 | 0.00 | 0.04 | 0.04 | 83 | 1008.3 |
| 20260904031541 | 77 | 205 | 2.0 | 6.0 | 0.00 | 0.04 | 0.04 | 84 | 1009.2 |
| 20260904031510 | 78 | 205 | 4.0 | 1.0 | 0.00 | 0.04 | 0.04 | 83 | 1008.3 |
| 20260904031020 | 77 | 195 | 1.0 | 5.0 | 0.00 | 0.04 | 0.04 | 84 | 1009.2 |
| 20260904031010 | 78 | 194 | 3.0 | 0.0 | 0.00 | 0.04 | 0.04 | 83 | 1008.3 |
| 20260904030520 | 77 | 188 | 2.0 | 4.0 | 0.00 | 0.04 | 0.04 | 83 | 1009.2 |
| 20260904030511 | 78 | 188 | 2.0 | 0.0 | 0.00 | 0.04 | 0.04 | 83 | 1008.4 |
| 20260904030045 | 77 | 186 | 2.0 | 5.0 | 0.00 | 0.04 | 0.04 | 83 | 1009.2 |
| 20260904030010 | 78 | 186 | 3.0 | 0.0 | 0.00 | 0.04 | 0.04 | 83 | 1008.4 |
| 20260904025523 | 77 | 178 | 2.0 | 5.0 | 0.00 | 0.04 | 0.04 | 83 | 1009.2 |
| 20260904025510 | 78 | 178 | 2.0 | 0.0 | 0.00 | 0.04 | 0.04 | 82 | 1008.5 |
| 20260904025024 | 78 | 0 | 0.0 | 0.0 | 0.00 | 0.04 | 0.04 | 83 | 1009.3 |
| 20260904025010 | 78 | 182 | 0.0 | 0.0 | 0.00 | 0.04 | 0.04 | 82 | 1008.5 |
| 20260904024539 | 78 | 0 | 0.0 | 0.0 | 0.00 | 0.04 | 0.04 | 82 | 1009.3 |
| 20260904024511 | 78 | 180 | 0.0 | 0.0 | 0.00 | 0.04 | 0.04 | 82 | 1008.5 |
| 20260904024021 | 78 | 0 | 0.0 | 0.0 | 0.00 | 0.04 | 0.04 | 82 | 1009.4 |
| 20260904023520 | 78 | 0 | 0.0 | 0.0 | 0.00 | 0.04 | 0.04 | 82 | 1009.3 |
| 20260904023510 | 78 | 180 | 0.0 | 0.0 | 0.00 | 0.04 | 0.04 | 82 | 1008.5 |
| 20260904023047 | 78 | 0 | 0.0 | 0.0 | 0.00 | 0.04 | 0.04 | 82 | 1009.4 |
| 20260904023010 | 78 | 180 | 0.0 | 0.0 | 0.00 | 0.04 | 0.04 | 82 | 1008.7 |
| 20260904022519 | 78 | 0 | 0.0 | 0.0 | 0.00 | 0.04 | 0.04 | 82 | 1009.5 |
| 20260904022510 | 78 | 180 | 0.0 | 0.0 | 0.00 | 0.04 | 0.04 | 81 | 1008.6 |
| 20260904022019 | 78 | 0 | 0.0 | 0.0 | 0.00 | 0.04 | 0.04 | 82 | 1009.4 |
| 20260904021543 | 78 | 0 | 0.0 | 0.0 | 0.00 | 0.04 | 0.04 | 82 | 1009.5 |
| 20260904021511 | 78 | 180 | 0.0 | 0.0 | 0.00 | 0.04 | 0.04 | 81 | 1008.6 |
| 20260904021024 | 78 | 0 | 0.0 | 0.0 | 0.00 | 0.04 | 0.04 | 82 | 1009.5 |
| 20260904021010 | 79 | 180 | 0.0 | 0.0 | 0.00 | 0.04 | 0.04 | 81 | 1008.5 |
| 20260904020523 | 78 | 0 | 0.0 | 0.0 | 0.00 | 0.04 | 0.04 | 82 | 1009.4 |
| 20260904020510 | 79 | 180 | 0.0 | 0.0 | 0.00 | 0.04 | 0.04 | 81 | 1008.5 |
| 20260904020037 | 78 | 0 | 0.0 | 0.0 | 0.00 | 0.04 | 0.04 | 82 | 1009.3 |
| 20260904020011 | 79 | 180 | 0.0 | 0.0 | 0.00 | 0.04 | 0.04 | 81 | 1008.5 |
| 20260904015526 | 78 | 0 | 0.0 | 0.0 | 0.00 | 0.04 | 0.04 | 81 | 1009.4 |
| 20260904015511 | 79 | 180 | 0.0 | 0.0 | 0.00 | 0.04 | 0.04 | 81 | 1008.6 |
| 20260904015027 | 78 | 0 | 0.0 | 0.0 | 0.00 | 0.04 | 0.04 | 81 | 1009.3 |
| 20260904015010 | 79 | 180 | 0.0 | 0.0 | 0.00 | 0.04 | 0.04 | 81 | 1008.5 |
| 20260904014614 | 78 | 0 | 0.0 | 0.0 | 0.00 | 0.04 | 0.04 | 80 | 1009.3 |
| 20260904014511 | 79 | 180 | 0.0 | 0.0 | 0.00 | 0.04 | 0.04 | 80 | 1008.4 |
| 20260904014023 | 79 | 0 | 0.0 | 0.0 | 0.00 | 0.04 | 0.04 | 80 | 1009.2 |
| 20260904014011 | 79 | 180 | 0.0 | 0.0 | 0.00 | 0.04 | 0.04 | 79 | 1008.4 |
| 20260904013521 | 79 | 0 | 0.0 | 1.0 | 0.00 | 0.04 | 0.04 | 80 | 1009.2 |
| 20260904013510 | 79 | 180 | 0.0 | 0.0 | 0.00 | 0.04 | 0.04 | 79 | 1008.3 |
| 20260904013041 | 79 | 0 | 0.0 | 1.0 | 0.00 | 0.04 | 0.04 | 79 | 1009.1 |
| 20260904013010 | 79 | 180 | 0.0 | 0.0 | 0.00 | 0.04 | 0.04 | 79 | 1008.2 |
| 20260904012520 | 79 | 0 | 0.0 | 0.0 | 0.00 | 0.04 | 0.04 | 79 | 1009.0 |
| 20260904012511 | 80 | 180 | 0.0 | 0.0 | 0.00 | 0.04 | 0.04 | 79 | 1008.1 |
| 20260904012021 | 79 | 0 | 0.0 | 2.0 | 0.00 | 0.04 | 0.04 | 78 | 1008.9 |
| 20260904012010 | 80 | 180 | 0.0 | 0.0 | 0.00 | 0.04 | 0.04 | 78 | 1008.0 |
| 20260904011540 | 79 | 0 | 0.0 | 2.0 | 0.00 | 0.04 | 0.04 | 78 | 1008.7 |
| 20260904011510 | 80 | 180 | 0.0 | 0.0 | 0.00 | 0.04 | 0.04 | 77 | 1008.0 |
| 20260904011018 | 79 | 0 | 0.0 | 2.0 | 0.00 | 0.04 | 0.04 | 78 | 1008.7 |
| 20260904011010 | 80 | 180 | 0.0 | 0.0 | 0.00 | 0.04 | 0.04 | 77 | 1007.9 |
| 20260904010519 | 80 | 0 | 0.0 | 5.0 | 0.00 | 0.04 | 0.04 | 77 | 1008.6 |
| 20260904010510 | 80 | 180 | 0.0 | 0.0 | 0.00 | 0.04 | 0.04 | 76 | 1007.8 |
| 20260904010049 | 80 | 0 | 0.0 | 5.0 | 0.00 | 0.04 | 0.04 | 77 | 1008.5 |
| 20260904010011 | 80 | 180 | 0.0 | 0.0 | 0.00 | 0.04 | 0.04 | 76 | 1007.8 |
| 20260904005519 | 80 | 178 | 1.0 | 10.0 | 0.00 | 0.04 | 0.04 | 77 | 1008.6 |
| 20260904005510 | 80 | 184 | 3.0 | 1.0 | 0.00 | 0.04 | 0.04 | 76 | 1007.8 |
| 20260904005017 | 80 | 174 | 2.0 | 10.0 | 0.00 | 0.04 | 0.04 | 77 | 1008.4 |
| 20260904005010 | 80 | 174 | 2.0 | 1.0 | 0.00 | 0.04 | 0.04 | 76 | 1007.7 |
| 20260904004540 | 80 | 180 | 1.0 | 7.0 | 0.00 | 0.04 | 0.04 | 76 | 1008.3 |
| 20260904004510 | 80 | 180 | 2.0 | 1.0 | 0.00 | 0.04 | 0.04 | 76 | 1007.6 |
| 20260904004019 | 80 | 178 | 0.0 | 7.0 | 0.00 | 0.04 | 0.04 | 76 | 1008.5 |
| 20260904004011 | 81 | 168 | 0.0 | 1.0 | 0.00 | 0.04 | 0.04 | 76 | 1007.7 |
| 20260904003519 | 80 | 168 | 1.0 | 7.0 | 0.00 | 0.04 | 0.04 | 76 | 1008.5 |
| 20260904003511 | 81 | 168 | 2.0 | 1.0 | 0.00 | 0.04 | 0.04 | 76 | 1007.7 |
| 20260904003038 | 80 | 151 | 2.0 | 7.0 | 0.00 | 0.04 | 0.04 | 76 | 1008.5 |
| 20260904003010 | 81 | 151 | 2.0 | 1.0 | 0.00 | 0.04 | 0.04 | 75 | 1007.8 |
| 20260904002518 | 81 | 169 | 1.0 | 8.0 | 0.00 | 0.04 | 0.04 | 76 | 1008.6 |
| 20260904002510 | 81 | 169 | 2.0 | 1.0 | 0.00 | 0.04 | 0.04 | 75 | 1007.8 |
| 20260904002021 | 81 | 182 | 1.0 | 8.0 | 0.00 | 0.04 | 0.04 | 76 | 1008.6 |
| 20260904002010 | 81 | 182 | 5.0 | 1.0 | 0.00 | 0.04 | 0.04 | 75 | 1007.8 |
| 20260904001539 | 81 | 181 | 2.0 | 7.0 | 0.00 | 0.04 | 0.04 | 76 | 1008.7 |
| 20260904001511 | 81 | 181 | 1.0 | 0.0 | 0.00 | 0.04 | 0.04 | 75 | 1007.9 |
| 20260904001020 | 81 | 182 | 0.0 | 10.0 | 0.00 | 0.04 | 0.04 | 76 | 1008.6 |
| 20260904001011 | 81 | 182 | 3.0 | 1.0 | 0.00 | 0.04 | 0.04 | 75 | 1007.9 |
| 20260904000520 | 81 | 185 | 3.0 | 11.0 | 0.00 | 0.04 | 0.04 | 75 | 1008.6 |
| 20260904000510 | 81 | 185 | 2.0 | 1.0 | 0.00 | 0.04 | 0.04 | 75 | 1007.9 |
| 20260904000045 | 81 | 201 | 2.0 | 12.0 | 0.00 | 0.04 | 0.04 | 75 | 1008.6 |
| 20260903235520 | 81 | 159 | 4.0 | 12.0 | 0.00 | 0.04 | 0.04 | 75 | 1008.5 |
| 20260903235510 | 82 | 168 | 1.0 | 1.0 | 0.00 | 0.04 | 0.04 | 74 | 1007.8 |
| 20260903235019 | 81 | 154 | 2.0 | 7.0 | 0.00 | 0.04 | 0.04 | 75 | 1008.4 |
| 20260903235011 | 82 | 154 | 1.0 | 1.0 | 0.00 | 0.04 | 0.04 | 74 | 1007.7 |
| 20260903234545 | 81 | 164 | 1.0 | 5.0 | 0.00 | 0.04 | 0.04 | 75 | 1008.4 |
| 20260903234511 | 82 | 164 | 3.0 | 0.0 | 0.00 | 0.04 | 0.04 | 74 | 1007.7 |
| 20260903234024 | 81 | 165 | 1.0 | 6.0 | 0.00 | 0.04 | 0.04 | 75 | 1008.4 |
| 20260903234010 | 82 | 166 | 0.0 | 1.0 | 0.00 | 0.04 | 0.04 | 74 | 1007.6 |
| 20260903233521 | 82 | 135 | 1.0 | 7.0 | 0.00 | 0.04 | 0.04 | 74 | 1008.4 |
| 20260903233054 | 82 | 0 | 1.0 | 7.0 | 0.00 | 0.04 | 0.04 | 73 | 1008.1 |
| 20260903233010 | 82 | 143 | 0.0 | 1.0 | 0.00 | 0.04 | 0.04 | 73 | 1007.3 |
| 20260903232520 | 82 | 178 | 0.0 | 7.0 | 0.00 | 0.04 | 0.04 | 73 | 1008.2 |
| 20260903232510 | 82 | 177 | 1.0 | 1.0 | 0.00 | 0.04 | 0.04 | 73 | 1007.4 |
| 20260903232020 | 82 | 0 | 2.0 | 8.0 | 0.00 | 0.04 | 0.04 | 72 | 1008.1 |
| 20260903232010 | 82 | 170 | 0.0 | 1.0 | 0.00 | 0.04 | 0.04 | 72 | 1007.4 |
| 20260903231541 | 82 | 154 | 2.0 | 8.0 | 0.00 | 0.04 | 0.04 | 73 | 1008.1 |
| 20260903231511 | 82 | 176 | 3.0 | 1.0 | 0.00 | 0.04 | 0.04 | 72 | 1007.3 |
| 20260903231020 | 82 | 211 | 3.0 | 11.0 | 0.00 | 0.04 | 0.04 | 73 | 1008.1 |
| 20260903231011 | 82 | 173 | 3.0 | 1.0 | 0.00 | 0.04 | 0.04 | 72 | 1007.3 |
| 20260903230519 | 82 | 183 | 3.0 | 14.0 | 0.00 | 0.04 | 0.04 | 73 | 1008.0 |
| 20260903230510 | 82 | 138 | 2.0 | 1.0 | 0.00 | 0.04 | 0.04 | 72 | 1007.2 |
| 20260903230045 | 82 | 155 | 4.0 | 14.0 | 0.00 | 0.04 | 0.04 | 73 | 1008.0 |
| 20260903230011 | 82 | 155 | 2.0 | 1.0 | 0.00 | 0.04 | 0.04 | 72 | 1007.3 |
| 20260903225523 | 81 | 197 | 2.0 | 10.0 | 0.00 | 0.04 | 0.04 | 73 | 1008.1 |
| 20260903225510 | 82 | 181 | 6.0 | 1.0 | 0.00 | 0.04 | 0.04 | 72 | 1007.2 |
| 20260903225028 | 81 | 138 | 4.0 | 13.0 | 0.00 | 0.04 | 0.04 | 73 | 1008.0 |
| 20260903225010 | 82 | 138 | 5.0 | 1.0 | 0.00 | 0.04 | 0.04 | 73 | 1007.2 |
| 20260903224543 | 81 | 165 | 3.0 | 13.0 | 0.00 | 0.04 | 0.04 | 73 | 1008.1 |
| 20260903224511 | 82 | 166 | 8.0 | 1.0 | 0.00 | 0.04 | 0.04 | 73 | 1007.3 |
| 20260903224021 | 81 | 162 | 3.0 | 11.0 | 0.01 | 0.04 | 0.04 | 74 | 1008.1 |
| 20260903224010 | 81 | 162 | 2.0 | 1.0 | 0.01 | 0.04 | 0.04 | 73 | 1007.2 |
| 20260903223519 | 81 | 108 | 4.0 | 13.0 | 0.01 | 0.04 | 0.04 | 73 | 1008.0 |
| 20260903223510 | 81 | 108 | 2.0 | 1.0 | 0.01 | 0.04 | 0.04 | 72 | 1007.1 |
| 20260903223048 | 81 | 182 | 3.0 | 13.0 | 0.01 | 0.04 | 0.04 | 73 | 1008.2 |
| 20260903223010 | 81 | 119 | 8.0 | 1.0 | 0.01 | 0.04 | 0.04 | 73 | 1007.3 |
| 20260903222523 | 81 | 153 | 2.0 | 10.0 | 0.01 | 0.04 | 0.04 | 75 | 1008.1 |
| 20260903222511 | 81 | 153 | 2.0 | 1.0 | 0.01 | 0.04 | 0.04 | 75 | 1007.3 |
| 20260903222022 | 80 | 136 | 4.0 | 10.0 | 0.01 | 0.04 | 0.04 | 74 | 1008.1 |
| 20260903222011 | 81 | 161 | 2.0 | 1.0 | 0.01 | 0.04 | 0.04 | 74 | 1007.3 |
| 20260903221540 | 80 | 162 | 3.0 | 9.0 | 0.01 | 0.04 | 0.04 | 74 | 1008.1 |
| 20260903221510 | 81 | 163 | 1.0 | 1.0 | 0.01 | 0.04 | 0.04 | 74 | 1007.2 |
| 20260903221019 | 81 | 140 | 2.0 | 9.0 | 0.01 | 0.04 | 0.04 | 74 | 1008.2 |
| 20260903221010 | 81 | 144 | 1.0 | 1.0 | 0.01 | 0.04 | 0.04 | 74 | 1007.3 |
| 20260903220520 | 81 | 163 | 3.0 | 9.0 | 0.01 | 0.04 | 0.04 | 75 | 1008.3 |
| 20260903220511 | 81 | 203 | 6.0 | 1.0 | 0.01 | 0.04 | 0.04 | 75 | 1007.4 |
| 20260903220057 | 81 | 152 | 3.0 | 8.0 | 0.01 | 0.04 | 0.04 | 76 | 1008.2 |
| 20260903220010 | 82 | 170 | 4.0 | 1.0 | 0.01 | 0.04 | 0.04 | 75 | 1007.4 |
| 20260903215527 | 81 | 165 | 2.0 | 9.0 | 0.01 | 0.04 | 0.04 | 76 | 1008.3 |
| 20260903215510 | 82 | 165 | 2.0 | 1.0 | 0.01 | 0.04 | 0.04 | 76 | 1007.5 |
| 20260903215023 | 82 | 157 | 2.0 | 9.0 | 0.01 | 0.04 | 0.04 | 73 | 1008.3 |
| 20260903215010 | 82 | 157 | 3.0 | 1.0 | 0.01 | 0.04 | 0.04 | 73 | 1007.4 |
| 20260903214544 | 82 | 172 | 4.0 | 9.0 | 0.01 | 0.04 | 0.04 | 74 | 1008.1 |
| 20260903214510 | 83 | 140 | 9.0 | 1.0 | 0.01 | 0.04 | 0.04 | 72 | 1007.3 |
| 20260903214027 | 82 | 164 | 3.0 | 7.0 | 0.00 | 0.03 | 0.03 | 70 | 1008.0 |
| 20260903214011 | 83 | 161 | 2.0 | 1.0 | 0.00 | 0.03 | 0.03 | 70 | 1007.1 |
| 20260903213524 | 82 | 147 | 3.0 | 7.0 | 0.00 | 0.03 | 0.03 | 71 | 1007.8 |
| 20260903213510 | 83 | 151 | 4.0 | 1.0 | 0.00 | 0.03 | 0.03 | 70 | 1006.9 |
| 20260903213042 | 82 | 157 | 1.0 | 11.0 | 0.00 | 0.03 | 0.03 | 71 | 1008.7 |
| 20260903213010 | 83 | 157 | 4.0 | 1.0 | 0.00 | 0.03 | 0.03 | 71 | 1007.9 |
| 20260903212519 | 82 | 186 | 2.0 | 12.0 | 0.00 | 0.03 | 0.03 | 71 | 1008.8 |
| 20260903212510 | 83 | 186 | 1.0 | 1.0 | 0.00 | 0.03 | 0.03 | 70 | 1008.0 |
| 20260903212019 | 82 | 184 | 5.0 | 12.0 | 0.00 | 0.03 | 0.03 | 71 | 1009.1 |
| 20260903212010 | 83 | 167 | 3.0 | 1.0 | 0.00 | 0.03 | 0.03 | 71 | 1008.2 |
| 20260903211542 | 82 | 177 | 5.0 | 12.0 | 0.00 | 0.03 | 0.03 | 73 | 1009.1 |
| 20260903211511 | 83 | 176 | 4.0 | 1.0 | 0.00 | 0.03 | 0.03 | 72 | 1008.2 |
| 20260903211018 | 82 | 221 | 2.0 | 10.0 | 0.00 | 0.03 | 0.03 | 72 | 1009.0 |
| 20260903211010 | 83 | 221 | 4.0 | 1.0 | 0.00 | 0.03 | 0.03 | 72 | 1008.1 |
| 20260903210518 | 82 | 88 | 2.0 | 6.0 | 0.00 | 0.03 | 0.03 | 75 | 1009.0 |
| 20260903210037 | 82 | 78 | 3.0 | 6.0 | 0.00 | 0.03 | 0.03 | 75 | 1009.1 |
| 20260903210010 | 83 | 78 | 5.0 | 1.0 | 0.00 | 0.03 | 0.03 | 74 | 1008.1 |
| 20260903205517 | 82 | 79 | 3.0 | 7.0 | 0.00 | 0.03 | 0.03 | 75 | 1009.0 |
| 20260903205510 | 83 | 80 | 6.0 | 1.0 | 0.00 | 0.03 | 0.03 | 75 | 1008.1 |
| 20260903205024 | 82 | 91 | 4.0 | 7.0 | 0.00 | 0.03 | 0.03 | 73 | 1009.1 |
| 20260903205011 | 83 | 91 | 2.0 | 1.0 | 0.00 | 0.03 | 0.03 | 73 | 1008.2 |
| 20260903204545 | 82 | 172 | 3.0 | 7.0 | 0.00 | 0.03 | 0.03 | 73 | 1009.0 |
| 20260903204511 | 83 | 172 | 2.0 | 1.0 | 0.00 | 0.03 | 0.03 | 72 | 1008.1 |
| 20260903204024 | 82 | 99 | 5.0 | 7.0 | 0.00 | 0.03 | 0.03 | 74 | 1009.0 |
| 20260903203518 | 82 | 101 | 4.0 | 9.0 | 0.00 | 0.03 | 0.03 | 74 | 1009.1 |
| 20260903203510 | 82 | 65 | 4.0 | 1.0 | 0.00 | 0.03 | 0.03 | 72 | 1008.3 |
| 20260903203048 | 82 | 90 | 4.0 | 9.0 | 0.00 | 0.03 | 0.03 | 73 | 1009.2 |
| 20260903202520 | 82 | 99 | 4.0 | 9.0 | 0.00 | 0.03 | 0.03 | 74 | 1009.2 |
| 20260903202018 | 81 | 0 | 1.0 | 7.0 | 0.00 | 0.03 | 0.03 | 76 | 1009.1 |
| 20260903202011 | 82 | 145 | 0.0 | 1.0 | 0.00 | 0.03 | 0.03 | 75 | 1008.3 |
| 20260903201538 | 81 | 151 | 3.0 | 10.0 | 0.00 | 0.03 | 0.03 | 79 | 1009.1 |
| 20260903201511 | 81 | 126 | 1.0 | 1.0 | 0.00 | 0.03 | 0.03 | 79 | 1008.3 |
| 20260903201028 | 80 | 122 | 3.0 | 11.0 | 0.00 | 0.03 | 0.03 | 76 | 1009.3 |
| 20260903201010 | 81 | 122 | 3.0 | 1.0 | 0.00 | 0.03 | 0.03 | 76 | 1008.4 |
| 20260903200523 | 80 | 168 | 3.0 | 11.0 | 0.00 | 0.03 | 0.03 | 77 | 1009.2 |
| 20260903200511 | 80 | 168 | 4.0 | 1.0 | 0.00 | 0.03 | 0.03 | 77 | 1008.4 |
| 20260903200043 | 80 | 149 | 2.0 | 9.0 | 0.00 | 0.03 | 0.03 | 79 | 1009.2 |
| 20260903200011 | 80 | 168 | 7.0 | 1.0 | 0.00 | 0.03 | 0.03 | 78 | 1008.4 |
| 20260903195524 | 79 | 182 | 2.0 | 8.0 | 0.00 | 0.03 | 0.03 | 79 | 1009.1 |
| 20260903195511 | 80 | 182 | 2.0 | 1.0 | 0.00 | 0.03 | 0.03 | 78 | 1008.3 |
| 20260903195020 | 79 | 213 | 2.0 | 8.0 | 0.00 | 0.03 | 0.03 | 78 | 1009.2 |
| 20260903195011 | 80 | 212 | 3.0 | 1.0 | 0.00 | 0.03 | 0.03 | 78 | 1008.4 |
| 20260903194543 | 79 | 0 | 0.0 | 6.0 | 0.00 | 0.03 | 0.03 | 79 | 1009.3 |
| 20260903194022 | 79 | 211 | 1.0 | 6.0 | 0.00 | 0.03 | 0.03 | 78 | 1009.5 |
| 20260903194010 | 80 | 211 | 1.0 | 1.0 | 0.00 | 0.03 | 0.03 | 77 | 1008.6 |
| 20260903193518 | 79 | 0 | 0.0 | 4.0 | 0.00 | 0.03 | 0.03 | 78 | 1009.5 |
| 20260903193511 | 80 | 159 | 0.0 | 0.0 | 0.00 | 0.03 | 0.03 | 77 | 1008.7 |
| 20260903193048 | 79 | 0 | 0.0 | 5.0 | 0.00 | 0.03 | 0.03 | 78 | 1009.7 |
| 20260903193011 | 80 | 159 | 0.0 | 0.0 | 0.00 | 0.03 | 0.03 | 77 | 1008.9 |
| 20260903192523 | 79 | 0 | 0.0 | 5.0 | 0.00 | 0.03 | 0.03 | 76 | 1009.8 |
| 20260903192023 | 79 | 164 | 1.0 | 4.0 | 0.00 | 0.03 | 0.03 | 77 | 1009.9 |
| 20260903192011 | 80 | 164 | 2.0 | 0.0 | 0.00 | 0.03 | 0.03 | 77 | 1009.1 |
| 20260903191542 | 79 | 0 | 0.0 | 4.0 | 0.00 | 0.03 | 0.03 | 78 | 1009.9 |
| 20260903191511 | 80 | 95 | 0.0 | 0.0 | 0.00 | 0.03 | 0.03 | 78 | 1009.2 |
| 20260903191021 | 79 | 95 | 2.0 | 4.0 | 0.00 | 0.03 | 0.03 | 81 | 1009.9 |
| 20260903191011 | 80 | 74 | 3.0 | 0.0 | 0.00 | 0.03 | 0.03 | 80 | 1009.2 |
| 20260903190521 | 79 | 0 | 0.0 | 0.0 | 0.00 | 0.03 | 0.03 | 78 | 1009.9 |
| 20260903190511 | 79 | 68 | 0.0 | 0.0 | 0.00 | 0.03 | 0.03 | 77 | 1009.2 |
| 20260903190043 | 79 | 0 | 0.0 | 0.0 | 0.00 | 0.03 | 0.03 | 80 | 1010.0 |
| 20260903190011 | 79 | 127 | 0.0 | 0.0 | 0.00 | 0.03 | 0.03 | 79 | 1009.2 |
| 20260903185520 | 79 | 0 | 0.0 | 0.0 | 0.00 | 0.03 | 0.03 | 80 | 1009.8 |
| 20260903185511 | 79 | 127 | 0.0 | 0.0 | 0.00 | 0.03 | 0.03 | 79 | 1009.1 |
| 20260903185020 | 79 | 0 | 0.0 | 0.0 | 0.00 | 0.03 | 0.03 | 78 | 1010.0 |
| 20260903185011 | 79 | 126 | 0.0 | 0.0 | 0.00 | 0.03 | 0.03 | 78 | 1009.2 |
| 20260903184538 | 79 | 0 | 0.0 | 0.0 | 0.00 | 0.03 | 0.03 | 79 | 1009.9 |
| 20260903184511 | 80 | 126 | 0.0 | 0.0 | 0.00 | 0.03 | 0.03 | 78 | 1009.1 |
| 20260903184020 | 79 | 0 | 0.0 | 0.0 | 0.00 | 0.03 | 0.03 | 79 | 1010.0 |
| 20260903184011 | 80 | 127 | 0.0 | 0.0 | 0.00 | 0.03 | 0.03 | 78 | 1009.2 |
| 20260903183519 | 79 | 0 | 0.0 | 0.0 | 0.00 | 0.03 | 0.03 | 75 | 1010.2 |
| 20260903183043 | 80 | 0 | 0.0 | 0.0 | 0.00 | 0.03 | 0.03 | 78 | 1009.9 |
| 20260903183010 | 80 | 127 | 0.0 | 0.0 | 0.00 | 0.03 | 0.03 | 77 | 1009.2 |
| 20260903182522 | 79 | 0 | 0.0 | 0.0 | 0.00 | 0.03 | 0.03 | 78 | 1010.0 |
| 20260903182511 | 80 | 127 | 0.0 | 0.0 | 0.00 | 0.03 | 0.03 | 77 | 1009.2 |
| 20260903182022 | 79 | 0 | 0.0 | 1.0 | 0.00 | 0.03 | 0.03 | 80 | 1010.0 |
| 20260903182011 | 80 | 126 | 0.0 | 0.0 | 0.00 | 0.03 | 0.03 | 79 | 1009.2 |
| 20260903181541 | 79 | 0 | 0.0 | 1.0 | 0.00 | 0.03 | 0.03 | 81 | 1009.9 |
| 20260903181511 | 80 | 124 | 0.0 | 0.0 | 0.00 | 0.03 | 0.03 | 80 | 1009.1 |
| 20260903181018 | 79 | 0 | 0.0 | 3.0 | 0.00 | 0.03 | 0.03 | 80 | 1010.0 |
| 20260903181011 | 79 | 124 | 0.0 | 0.0 | 0.00 | 0.03 | 0.03 | 79 | 1009.2 |
| 20260903180518 | 78 | 0 | 0.0 | 3.0 | 0.00 | 0.03 | 0.03 | 81 | 1010.1 |
| 20260903180511 | 79 | 114 | 0.0 | 0.0 | 0.00 | 0.03 | 0.03 | 81 | 1009.3 |
| 20260903180047 | 78 | 0 | 1.0 | 3.0 | 0.00 | 0.03 | 0.03 | 82 | 1010.0 |
| 20260903180011 | 78 | 95 | 0.0 | 0.0 | 0.00 | 0.03 | 0.03 | 82 | 1009.1 |
| 20260903175519 | 77 | 0 | 0.0 | 5.0 | 0.00 | 0.03 | 0.03 | 85 | 1010.1 |
| 20260903175020 | 77 | 0 | 0.0 | 6.0 | 0.00 | 0.03 | 0.03 | 82 | 1010.0 |
| 20260903175011 | 77 | 210 | 0.0 | 0.0 | 0.00 | 0.03 | 0.03 | 82 | 1009.3 |
| 20260903174539 | 77 | 168 | 0.0 | 6.0 | 0.00 | 0.03 | 0.03 | 80 | 1010.3 |
| 20260903174021 | 77 | 150 | 0.0 | 5.0 | 0.00 | 0.03 | 0.03 | 79 | 1010.4 |
| 20260903174011 | 78 | 150 | 4.0 | 0.0 | 0.00 | 0.03 | 0.03 | 79 | 1009.5 |
| 20260903173522 | 77 | 139 | 1.0 | 4.0 | 0.00 | 0.03 | 0.03 | 79 | 1010.6 |
| 20260903173510 | 78 | 139 | 0.0 | 0.0 | 0.00 | 0.03 | 0.03 | 79 | 1009.7 |
| 20260903173044 | 78 | 136 | 1.0 | 4.0 | 0.00 | 0.03 | 0.03 | 78 | 1010.7 |
| 20260903173011 | 78 | 136 | 2.0 | 0.0 | 0.00 | 0.03 | 0.03 | 78 | 1009.8 |
| 20260903172524 | 78 | 188 | 0.0 | 11.0 | 0.00 | 0.03 | 0.03 | 77 | 1010.8 |
| 20260903172511 | 78 | 188 | 0.0 | 1.0 | 0.00 | 0.03 | 0.03 | 77 | 1009.8 |
| 20260903172021 | 78 | 177 | 3.0 | 11.0 | 0.00 | 0.03 | 0.03 | 76 | 1011.0 |
| 20260903172011 | 79 | 177 | 2.0 | 1.0 | 0.00 | 0.03 | 0.03 | 76 | 1010.0 |
| 20260903171547 | 78 | 167 | 2.0 | 11.0 | 0.00 | 0.03 | 0.03 | 76 | 1010.9 |
| 20260903171511 | 79 | 188 | 2.0 | 1.0 | 0.00 | 0.03 | 0.03 | 76 | 1009.9 |
| 20260903171019 | 79 | 178 | 2.0 | 6.0 | 0.00 | 0.03 | 0.03 | 77 | 1010.8 |
| 20260903171011 | 79 | 178 | 2.0 | 1.0 | 0.00 | 0.03 | 0.03 | 76 | 1009.8 |
| 20260903170518 | 79 | 222 | 2.0 | 6.0 | 0.00 | 0.03 | 0.03 | 78 | 1010.7 |
| 20260903170511 | 79 | 221 | 4.0 | 1.0 | 0.00 | 0.03 | 0.03 | 78 | 1009.8 |
| 20260903170045 | 79 | 197 | 0.0 | 5.0 | 0.00 | 0.03 | 0.03 | 77 | 1010.8 |
| 20260903170011 | 79 | 197 | 2.0 | 0.0 | 0.00 | 0.03 | 0.03 | 77 | 1009.8 |
| 20260903165522 | 79 | 0 | 1.0 | 5.0 | 0.00 | 0.03 | 0.03 | 79 | 1010.7 |
| 20260903165511 | 79 | 184 | 0.0 | 0.0 | 0.00 | 0.03 | 0.03 | 79 | 1009.8 |
| 20260903165024 | 79 | 195 | 0.0 | 5.0 | 0.00 | 0.03 | 0.03 | 80 | 1010.8 |
| 20260903165011 | 79 | 195 | 4.0 | 0.0 | 0.00 | 0.03 | 0.03 | 80 | 1009.8 |
| 20260903164544 | 78 | 0 | 0.0 | 5.0 | 0.00 | 0.03 | 0.03 | 81 | 1010.6 |
| 20260903164511 | 79 | 183 | 0.0 | 0.0 | 0.00 | 0.03 | 0.03 | 80 | 1009.7 |
| 20260903164019 | 78 | 0 | 1.0 | 9.0 | 0.00 | 0.03 | 0.03 | 82 | 1010.8 |
| 20260903164011 | 78 | 183 | 0.0 | 1.0 | 0.00 | 0.03 | 0.03 | 82 | 1009.8 |
| 20260903163519 | 78 | 174 | 2.0 | 9.0 | 0.00 | 0.03 | 0.03 | 82 | 1010.8 |
| 20260903163511 | 78 | 174 | 1.0 | 1.0 | 0.00 | 0.03 | 0.03 | 81 | 1009.8 |
| 20260903163045 | 78 | 172 | 2.0 | 6.0 | 0.00 | 0.03 | 0.03 | 82 | 1010.8 |
| 20260903163011 | 78 | 171 | 6.0 | 1.0 | 0.00 | 0.03 | 0.03 | 82 | 1009.8 |
| 20260903162518 | 77 | 174 | 2.0 | 6.0 | 0.00 | 0.03 | 0.03 | 83 | 1010.7 |
| 20260903162512 | 78 | 174 | 3.0 | 1.0 | 0.00 | 0.03 | 0.03 | 82 | 1009.8 |
| 20260903162019 | 77 | 196 | 2.0 | 6.0 | 0.00 | 0.03 | 0.03 | 82 | 1010.8 |
| 20260903162011 | 78 | 196 | 3.0 | 1.0 | 0.00 | 0.03 | 0.03 | 82 | 1009.8 |
| 20260903161542 | 77 | 174 | 1.0 | 6.0 | 0.00 | 0.03 | 0.03 | 83 | 1010.8 |
| 20260903161511 | 77 | 174 | 2.0 | 1.0 | 0.00 | 0.03 | 0.03 | 83 | 1009.8 |
| 20260903161018 | 77 | 0 | 0.0 | 11.0 | 0.00 | 0.03 | 0.03 | 84 | 1010.7 |
| 20260903161011 | 77 | 224 | 0.0 | 1.0 | 0.00 | 0.03 | 0.03 | 83 | 1009.7 |
| 20260903160522 | 77 | 0 | 1.0 | 11.0 | 0.00 | 0.03 | 0.03 | 82 | 1010.6 |
| 20260903160511 | 77 | 163 | 0.0 | 1.0 | 0.00 | 0.03 | 0.03 | 81 | 1009.6 |
| 20260903160043 | 77 | 158 | 2.0 | 7.0 | 0.00 | 0.03 | 0.03 | 82 | 1010.7 |
| 20260903160011 | 77 | 157 | 4.0 | 1.0 | 0.00 | 0.03 | 0.03 | 81 | 1009.7 |
| 20260903155521 | 77 | 165 | 3.0 | 7.0 | 0.00 | 0.03 | 0.03 | 81 | 1010.8 |
| 20260903155021 | 78 | 176 | 3.0 | 7.0 | 0.00 | 0.03 | 0.03 | 81 | 1010.9 |
| 20260903155011 | 78 | 170 | 4.0 | 1.0 | 0.00 | 0.03 | 0.03 | 80 | 1010.0 |
| 20260903154542 | 78 | 182 | 2.0 | 5.0 | 0.00 | 0.03 | 0.03 | 81 | 1010.8 |
| 20260903154511 | 78 | 182 | 2.0 | 0.0 | 0.00 | 0.03 | 0.03 | 80 | 1009.9 |
| 20260903154019 | 78 | 199 | 2.0 | 5.0 | 0.00 | 0.03 | 0.03 | 81 | 1010.8 |
| 20260903154011 | 78 | 199 | 2.0 | 0.0 | 0.00 | 0.03 | 0.03 | 80 | 1009.9 |
| 20260903153519 | 78 | 224 | 2.0 | 6.0 | 0.00 | 0.03 | 0.03 | 82 | 1010.6 |
| 20260903153511 | 79 | 229 | 2.0 | 0.0 | 0.00 | 0.03 | 0.03 | 81 | 1009.7 |
| 20260903153039 | 78 | 0 | 2.0 | 6.0 | 0.00 | 0.03 | 0.03 | 82 | 1010.7 |
| 20260903153011 | 79 | 215 | 1.0 | 0.0 | 0.00 | 0.03 | 0.03 | 81 | 1009.7 |
| 20260903152523 | 78 | 181 | 3.0 | 5.0 | 0.00 | 0.03 | 0.03 | 81 | 1010.7 |
| 20260903152511 | 79 | 181 | 4.0 | 0.0 | 0.00 | 0.03 | 0.03 | 81 | 1009.8 |
| 20260903152024 | 78 | 187 | 0.0 | 5.0 | 0.00 | 0.03 | 0.03 | 82 | 1010.6 |
| 20260903152011 | 79 | 187 | 2.0 | 0.0 | 0.00 | 0.03 | 0.03 | 82 | 1009.7 |
| 20260903151551 | 78 | 0 | 0.0 | 5.0 | 0.00 | 0.03 | 0.03 | 83 | 1010.5 |
| 20260903151511 | 79 | 186 | 0.0 | 0.0 | 0.00 | 0.03 | 0.03 | 83 | 1009.6 |
| 20260903151018 | 78 | 0 | 1.0 | 5.0 | 0.00 | 0.03 | 0.03 | 83 | 1010.6 |
| 20260903151011 | 79 | 201 | 0.0 | 0.0 | 0.00 | 0.03 | 0.03 | 82 | 1009.7 |
| 20260903150518 | 78 | 0 | 0.0 | 5.0 | 0.00 | 0.03 | 0.03 | 82 | 1010.6 |
| 20260903150511 | 78 | 157 | 0.0 | 0.0 | 0.00 | 0.03 | 0.03 | 82 | 1009.7 |
| 20260903150011 | 78 | 157 | 1.0 | 0.0 | 0.00 | 0.03 | 0.03 | 82 | 1009.7 |
| 20260903145520 | 78 | 172 | 1.0 | 6.0 | 0.00 | 0.03 | 0.03 | 83 | 1010.6 |
| 20260903145511 | 78 | 171 | 0.0 | 0.0 | 0.00 | 0.03 | 0.03 | 83 | 1009.7 |
| 20260903145020 | 78 | 174 | 1.0 | 6.0 | 0.00 | 0.03 | 0.03 | 83 | 1010.6 |
| 20260903145011 | 78 | 163 | 2.0 | 1.0 | 0.00 | 0.03 | 0.03 | 83 | 1009.7 |
| 20260903144542 | 78 | 124 | 1.0 | 5.0 | 0.00 | 0.03 | 0.03 | 86 | 1010.7 |
| 20260903144511 | 78 | 124 | 1.0 | 0.0 | 0.00 | 0.03 | 0.03 | 85 | 1009.8 |
| 20260903144022 | 77 | 179 | 2.0 | 5.0 | 0.00 | 0.03 | 0.03 | 86 | 1010.7 |
| 20260903144011 | 78 | 179 | 2.0 | 0.0 | 0.00 | 0.03 | 0.03 | 86 | 1009.8 |
| 20260903143519 | 76 | 132 | 1.0 | 3.0 | 0.00 | 0.03 | 0.03 | 87 | 1010.7 |
| 20260903143511 | 77 | 132 | 2.0 | 0.0 | 0.00 | 0.03 | 0.03 | 87 | 1009.8 |
| 20260903143040 | 76 | 87 | 0.0 | 2.0 | 0.00 | 0.03 | 0.03 | 87 | 1010.7 |
| 20260903142520 | 76 | 0 | 0.0 | 3.0 | 0.00 | 0.03 | 0.03 | 89 | 1010.7 |
| 20260903142017 | 75 | 0 | 0.0 | 5.0 | 0.00 | 0.03 | 0.03 | 90 | 1010.7 |
| 20260903142011 | 76 | 86 | 0.0 | 0.0 | 0.00 | 0.03 | 0.03 | 89 | 1009.8 |
| 20260903141546 | 74 | 86 | 2.0 | 5.0 | 0.00 | 0.03 | 0.03 | 90 | 1010.8 |
| 20260903141022 | 74 | 0 | 0.0 | 2.0 | 0.00 | 0.03 | 0.03 | 91 | 1010.8 |
| 20260903141011 | 74 | 207 | 0.0 | 0.0 | 0.00 | 0.03 | 0.03 | 91 | 1009.9 |
| 20260903140519 | 73 | 0 | 0.0 | 2.0 | 0.00 | 0.03 | 0.03 | 92 | 1010.9 |
| 20260903140511 | 74 | 207 | 0.0 | 0.0 | 0.00 | 0.03 | 0.03 | 91 | 1009.9 |
| 20260903140042 | 73 | 207 | 0.0 | 4.0 | 0.00 | 0.03 | 0.03 | 91 | 1010.8 |
| 20260903140011 | 73 | 207 | 1.0 | 0.0 | 0.00 | 0.03 | 0.03 | 91 | 1009.9 |
| 20260903135518 | 72 | 0 | 0.0 | 4.0 | 0.00 | 0.03 | 0.03 | 91 | 1010.9 |
| 20260903135511 | 73 | 207 | 0.0 | 0.0 | 0.00 | 0.03 | 0.03 | 91 | 1009.9 |
| 20260903135019 | 72 | 207 | 1.0 | 4.0 | 0.00 | 0.03 | 0.03 | 92 | 1010.8 |
| 20260903135011 | 72 | 207 | 3.0 | 0.0 | 0.00 | 0.03 | 0.03 | 91 | 1009.9 |
| 20260903134550 | 72 | 203 | 1.0 | 4.0 | 0.00 | 0.03 | 0.03 | 92 | 1010.6 |
| 20260903134511 | 72 | 203 | 2.0 | 0.0 | 0.00 | 0.03 | 0.03 | 91 | 1009.8 |
| 20260903134022 | 72 | 180 | 0.0 | 3.0 | 0.00 | 0.03 | 0.03 | 92 | 1010.7 |
| 20260903134011 | 72 | 180 | 1.0 | 0.0 | 0.00 | 0.03 | 0.03 | 91 | 1009.9 |
| 20260903133518 | 71 | 0 | 0.0 | 2.0 | 0.00 | 0.03 | 0.03 | 92 | 1010.7 |
| 20260903133511 | 72 | 180 | 0.0 | 0.0 | 0.00 | 0.03 | 0.03 | 91 | 1009.8 |
| 20260903133039 | 71 | 0 | 0.0 | 2.0 | 0.00 | 0.03 | 0.03 | 92 | 1010.7 |
| 20260903132518 | 71 | 0 | 0.0 | 2.0 | 0.00 | 0.03 | 0.03 | 92 | 1010.6 |
| 20260903132019 | 71 | 0 | 0.0 | 2.0 | 0.01 | 0.03 | 0.03 | 92 | 1010.8 |
| 20260903132011 | 71 | 180 | 0.0 | 0.0 | 0.02 | 0.03 | 0.03 | 91 | 1009.9 |
| 20260903131545 | 71 | 0 | 0.0 | 2.0 | 0.03 | 0.03 | 0.03 | 91 | 1010.5 |
| 20260903131511 | 71 | 180 | 0.0 | 0.0 | 0.03 | 0.03 | 0.03 | 90 | 1009.8 |
| 20260903131019 | 71 | 0 | 0.0 | 0.0 | 0.03 | 0.03 | 0.03 | 90 | 1010.6 |
| 20260903130518 | 71 | 0 | 0.0 | 3.0 | 0.03 | 0.03 | 0.03 | 90 | 1010.8 |
| 20260903130511 | 71 | 180 | 0.0 | 0.0 | 0.03 | 0.03 | 0.03 | 90 | 1010.0 |
| 20260903130043 | 71 | 0 | 0.0 | 3.0 | 0.03 | 0.03 | 0.03 | 90 | 1010.9 |
| 20260903130011 | 71 | 180 | 0.0 | 0.0 | 0.03 | 0.03 | 0.03 | 90 | 1010.0 |
| 20260903125522 | 71 | 180 | 0.0 | 6.0 | 0.03 | 0.03 | 0.03 | 90 | 1010.9 |
| 20260903125511 | 71 | 180 | 2.0 | 0.0 | 0.03 | 0.03 | 0.03 | 89 | 1010.1 |
| 20260903125019 | 71 | 176 | 1.0 | 8.0 | 0.03 | 0.03 | 0.03 | 90 | 1010.9 |
| 20260903125012 | 71 | 176 | 1.0 | 1.0 | 0.03 | 0.03 | 0.03 | 89 | 1010.1 |
| 20260903124550 | 71 | 176 | 2.0 | 9.0 | 0.03 | 0.03 | 0.03 | 89 | 1010.8 |
| 20260903124019 | 71 | 187 | 2.0 | 11.0 | 0.03 | 0.03 | 0.03 | 89 | 1010.7 |
| 20260903124011 | 72 | 187 | 3.0 | 1.0 | 0.03 | 0.03 | 0.03 | 89 | 1009.9 |
| 20260903123522 | 72 | 172 | 3.0 | 11.0 | 0.03 | 0.03 | 0.03 | 89 | 1010.7 |
| 20260903123511 | 72 | 172 | 2.0 | 1.0 | 0.03 | 0.03 | 0.03 | 88 | 1009.9 |
| 20260903123047 | 72 | 202 | 2.0 | 12.0 | 0.03 | 0.03 | 0.03 | 89 | 1010.7 |
| 20260903123011 | 72 | 159 | 9.0 | 1.0 | 0.03 | 0.03 | 0.03 | 89 | 1010.0 |
| 20260903122523 | 72 | 208 | 2.0 | 15.0 | 0.03 | 0.03 | 0.03 | 90 | 1010.9 |
| 20260903122512 | 73 | 203 | 6.0 | 2.0 | 0.03 | 0.03 | 0.03 | 89 | 1010.1 |
| 20260903122020 | 72 | 218 | 7.0 | 15.0 | 0.01 | 0.01 | 0.01 | 89 | 1011.1 |
| 20260903122011 | 73 | 219 | 3.0 | 2.0 | 0.01 | 0.01 | 0.01 | 89 | 1010.2 |
| 20260903121541 | 72 | 176 | 2.0 | 9.0 | 0.00 | 0.00 | 0.00 | 90 | 1010.9 |
| 20260903121021 | 72 | 202 | 3.0 | 9.0 | 0.00 | 0.00 | 0.00 | 90 | 1011.0 |
| 20260903121011 | 72 | 207 | 4.0 | 1.0 | 0.00 | 0.00 | 0.00 | 90 | 1010.2 |
| 20260903120522 | 72 | 186 | 1.0 | 4.0 | 0.00 | 0.00 | 0.00 | 90 | 1011.1 |
| 20260903120511 | 72 | 185 | 4.0 | 0.0 | 0.00 | 0.00 | 0.00 | 89 | 1010.2 |
| 20260903120043 | 72 | 0 | 0.0 | 3.0 | 0.00 | 0.00 | 0.00 | 90 | 1011.0 |
| 20260903115519 | 72 | 187 | 0.0 | 3.0 | 0.00 | 0.00 | 0.00 | 90 | 1010.7 |
| 20260903115023 | 72 | 119 | 0.0 | 2.0 | 0.00 | 0.00 | 0.00 | 89 | 1010.8 |
| 20260903114541 | 72 | 0 | 0.0 | 2.0 | 0.00 | 0.00 | 0.00 | 90 | 1010.4 |
| 20260903114511 | 72 | 119 | 0.0 | 0.0 | 0.00 | 0.00 | 0.00 | 89 | 1009.6 |
| 20260903114021 | 72 | 0 | 0.0 | 0.0 | 0.00 | 0.00 | 0.00 | 90 | 1010.5 |
| 20260903114011 | 72 | 119 | 0.0 | 0.0 | 0.00 | 0.00 | 0.00 | 89 | 1009.7 |
| 20260903113519 | 72 | 0 | 0.0 | 2.0 | 0.00 | 0.00 | 0.00 | 90 | 1010.4 |
| 20260903113511 | 72 | 118 | 0.0 | 0.0 | 0.00 | 0.00 | 0.00 | 89 | 1009.7 |
| 20260903113051 | 72 | 0 | 0.0 | 2.0 | 0.00 | 0.00 | 0.00 | 90 | 1010.4 |
| 20260903113011 | 72 | 118 | 0.0 | 0.0 | 0.00 | 0.00 | 0.00 | 89 | 1009.7 |
| 20260903112523 | 72 | 0 | 0.0 | 0.0 | 0.00 | 0.00 | 0.00 | 90 | 1010.3 |
| 20260903112511 | 72 | 166 | 0.0 | 0.0 | 0.00 | 0.00 | 0.00 | 89 | 1009.6 |
| 20260903112025 | 72 | 0 | 0.0 | 0.0 | 0.00 | 0.00 | 0.00 | 90 | 1010.3 |
| 20260903112011 | 72 | 166 | 0.0 | 0.0 | 0.00 | 0.00 | 0.00 | 89 | 1009.5 |
| 20260903111542 | 72 | 0 | 0.0 | 0.0 | 0.00 | 0.00 | 0.00 | 90 | 1010.4 |
| 20260903111511 | 72 | 166 | 0.0 | 0.0 | 0.00 | 0.00 | 0.00 | 89 | 1009.7 |
| 20260903111021 | 72 | 0 | 0.0 | 0.0 | 0.00 | 0.00 | 0.00 | 90 | 1010.6 |
| 20260903110521 | 72 | 0 | 0.0 | 0.0 | 0.00 | 0.00 | 0.00 | 90 | 1010.7 |
| 20260903110511 | 72 | 166 | 0.0 | 0.0 | 0.00 | 0.00 | 0.00 | 89 | 1009.8 |
| 20260903110043 | 71 | 0 | 0.0 | 0.0 | 0.00 | 0.00 | 0.00 | 89 | 1010.7 |
| 20260903110011 | 72 | 107 | 0.0 | 0.0 | 0.00 | 0.00 | 0.00 | 89 | 1009.9 |
| 20260903105520 | 71 | 0 | 0.0 | 0.0 | 0.00 | 0.00 | 0.00 | 89 | 1010.9 |
| 20260903105511 | 72 | 87 | 0.0 | 0.0 | 0.00 | 0.00 | 0.00 | 89 | 1010.0 |
| 20260903105021 | 72 | 0 | 0.0 | 0.0 | 0.00 | 0.00 | 0.00 | 89 | 1011.0 |
| 20260903105011 | 72 | 70 | 0.0 | 0.0 | 0.00 | 0.00 | 0.00 | 88 | 1010.2 |
| 20260903104538 | 72 | 0 | 0.0 | 0.0 | 0.00 | 0.00 | 0.00 | 89 | 1011.0 |
| 20260903104511 | 72 | 70 | 0.0 | 0.0 | 0.00 | 0.00 | 0.00 | 88 | 1010.1 |
| 20260903104017 | 72 | 0 | 0.0 | 0.0 | 0.00 | 0.00 | 0.00 | 89 | 1010.8 |
| 20260903103523 | 72 | 0 | 0.0 | 0.0 | 0.00 | 0.00 | 0.00 | 89 | 1010.8 |
| 20260903103510 | 72 | 70 | 0.0 | 0.0 | 0.00 | 0.00 | 0.00 | 88 | 1010.0 |
| 20260903103044 | 72 | 0 | 0.0 | 0.0 | 0.00 | 0.00 | 0.00 | 89 | 1010.8 |
| 20260903103010 | 72 | 70 | 0.0 | 0.0 | 0.00 | 0.00 | 0.00 | 88 | 1010.0 |
| 20260903102521 | 72 | 0 | 0.0 | 0.0 | 0.00 | 0.00 | 0.00 | 89 | 1010.8 |
| 20260903102020 | 72 | 0 | 0.0 | 0.0 | 0.00 | 0.00 | 0.00 | 89 | 1010.6 |
| 20260903102010 | 72 | 70 | 0.0 | 0.0 | 0.00 | 0.00 | 0.00 | 88 | 1009.9 |
| 20260903101539 | 72 | 0 | 0.0 | 3.0 | 0.00 | 0.00 | 0.00 | 89 | 1010.3 |
| 20260903101510 | 72 | 70 | 0.0 | 0.0 | 0.00 | 0.00 | 0.00 | 88 | 1009.6 |
| 20260903101020 | 72 | 0 | 1.0 | 5.0 | 0.00 | 0.00 | 0.00 | 89 | 1010.3 |
| 20260903101010 | 72 | 70 | 0.0 | 0.0 | 0.00 | 0.00 | 0.00 | 88 | 1009.6 |
| 20260903100521 | 72 | 70 | 1.0 | 5.0 | 0.00 | 0.00 | 0.00 | 89 | 1010.3 |
| 20260903100510 | 72 | 70 | 0.0 | 0.0 | 0.00 | 0.00 | 0.00 | 88 | 1009.6 |
| 20260903100039 | 72 | 68 | 2.0 | 5.0 | 0.00 | 0.00 | 0.00 | 89 | 1010.2 |
| 20260903100010 | 72 | 69 | 3.0 | 0.0 | 0.00 | 0.00 | 0.00 | 88 | 1009.5 |
| 20260903095522 | 72 | 70 | 2.0 | 4.0 | 0.00 | 0.00 | 0.00 | 89 | 1010.3 |
| 20260903095510 | 72 | 70 | 2.0 | 0.0 | 0.00 | 0.00 | 0.00 | 88 | 1009.5 |
| 20260903095018 | 72 | 0 | 0.0 | 4.0 | 0.00 | 0.00 | 0.00 | 89 | 1010.3 |
| 20260903095010 | 72 | 70 | 0.0 | 0.0 | 0.00 | 0.00 | 0.00 | 88 | 1009.6 |
| 20260903094554 | 72 | 0 | 1.0 | 4.0 | 0.00 | 0.00 | 0.00 | 89 | 1010.2 |
| 20260903094510 | 72 | 69 | 0.0 | 0.0 | 0.00 | 0.00 | 0.00 | 88 | 1009.6 |
| 20260903094020 | 72 | 70 | 1.0 | 4.0 | 0.00 | 0.00 | 0.00 | 89 | 1010.3 |
| 20260903094010 | 72 | 70 | 2.0 | 0.0 | 0.00 | 0.00 | 0.00 | 88 | 1009.5 |
| 20260903093520 | 72 | 0 | 0.0 | 3.0 | 0.00 | 0.00 | 0.00 | 89 | 1010.3 |
| 20260903093043 | 72 | 0 | 1.0 | 4.0 | 0.00 | 0.00 | 0.00 | 89 | 1010.3 |
| 20260903093010 | 72 | 70 | 0.0 | 0.0 | 0.00 | 0.00 | 0.00 | 88 | 1009.5 |
| 20260903092521 | 72 | 69 | 1.0 | 4.0 | 0.00 | 0.00 | 0.00 | 89 | 1010.3 |
| 20260903092510 | 72 | 69 | 1.0 | 0.0 | 0.00 | 0.00 | 0.00 | 89 | 1009.5 |
| 20260903092021 | 72 | 69 | 2.0 | 5.0 | 0.00 | 0.00 | 0.00 | 89 | 1010.1 |
| 20260903092010 | 72 | 69 | 3.0 | 0.0 | 0.00 | 0.00 | 0.00 | 89 | 1009.4 |
| 20260903091552 | 71 | 67 | 2.0 | 5.0 | 0.00 | 0.00 | 0.00 | 89 | 1010.2 |
| 20260903091510 | 72 | 68 | 3.0 | 0.0 | 0.00 | 0.00 | 0.00 | 89 | 1009.5 |
| 20260903091021 | 71 | 66 | 2.0 | 5.0 | 0.00 | 0.00 | 0.00 | 89 | 1010.3 |
| 20260903091010 | 72 | 66 | 2.0 | 0.0 | 0.00 | 0.00 | 0.00 | 89 | 1009.5 |
| 20260903090521 | 71 | 67 | 1.0 | 3.0 | 0.00 | 0.00 | 0.00 | 89 | 1010.2 |
| 20260903090510 | 72 | 67 | 4.0 | 0.0 | 0.00 | 0.00 | 0.00 | 89 | 1009.4 |
| 20260903090038 | 71 | 68 | 1.0 | 3.0 | 0.00 | 0.00 | 0.00 | 89 | 1010.2 |
| 20260903090010 | 72 | 68 | 1.0 | 0.0 | 0.00 | 0.00 | 0.00 | 88 | 1009.4 |
| 20260903085520 | 71 | 0 | 0.0 | 1.0 | 0.00 | 0.01 | 0.00 | 89 | 1010.2 |
| 20260903085022 | 71 | 0 | 0.0 | 4.0 | 0.00 | 0.01 | 0.00 | 89 | 1010.3 |
| 20260903085010 | 72 | 66 | 0.0 | 0.0 | 0.00 | 0.01 | 0.00 | 88 | 1009.6 |
| 20260903084544 | 71 | 0 | 0.0 | 4.0 | 0.00 | 0.01 | 0.00 | 89 | 1010.1 |
| 20260903084510 | 72 | 66 | 0.0 | 0.0 | 0.00 | 0.01 | 0.00 | 88 | 1009.4 |
| 20260903084018 | 71 | 65 | 1.0 | 4.0 | 0.00 | 0.01 | 0.00 | 89 | 1010.0 |
| 20260903084010 | 72 | 66 | 2.0 | 0.0 | 0.00 | 0.01 | 0.00 | 88 | 1009.3 |
| 20260903083520 | 71 | 67 | 1.0 | 3.0 | 0.00 | 0.01 | 0.00 | 89 | 1010.1 |
| 20260903083510 | 72 | 67 | 1.0 | 0.0 | 0.00 | 0.01 | 0.00 | 88 | 1009.3 |
| 20260903083038 | 71 | 67 | 1.0 | 3.0 | 0.00 | 0.01 | 0.00 | 88 | 1010.2 |
| 20260903083010 | 72 | 67 | 0.0 | 0.0 | 0.00 | 0.01 | 0.00 | 88 | 1009.4 |
| 20260903082524 | 72 | 66 | 0.0 | 3.0 | 0.00 | 0.01 | 0.00 | 88 | 1010.0 |
| 20260903082510 | 72 | 66 | 3.0 | 0.0 | 0.00 | 0.01 | 0.00 | 88 | 1009.4 |
| 20260903082021 | 72 | 0 | 0.0 | 0.0 | 0.00 | 0.01 | 0.00 | 88 | 1010.1 |
| 20260903082010 | 72 | 66 | 0.0 | 0.0 | 0.00 | 0.01 | 0.00 | 87 | 1009.4 |
| 20260903081542 | 72 | 0 | 0.0 | 0.0 | 0.00 | 0.01 | 0.00 | 87 | 1010.2 |
| 20260903081510 | 72 | 66 | 0.0 | 0.0 | 0.00 | 0.01 | 0.00 | 87 | 1009.5 |
| 20260903081022 | 72 | 0 | 0.0 | 0.0 | 0.00 | 0.01 | 0.00 | 87 | 1010.2 |
| 20260903081010 | 72 | 66 | 0.0 | 0.0 | 0.00 | 0.01 | 0.00 | 87 | 1009.5 |
| 20260903080521 | 72 | 0 | 0.0 | 0.0 | 0.00 | 0.01 | 0.00 | 87 | 1010.3 |
| 20260903080510 | 72 | 66 | 0.0 | 0.0 | 0.00 | 0.01 | 0.00 | 87 | 1009.6 |
| 20260903080048 | 72 | 0 | 0.0 | 0.0 | 0.00 | 0.01 | 0.00 | 87 | 1010.4 |